Location: Slidell
(30.2789°N, 89.7378°W)
Time: 02:15:39
(UTC-05:00)

Cosmos 2360 Rocket - Visible Passes

Search period start: 29 June 2016 00:00
Search period end: 09 July 2016 00:00
Orbit: 834 x 845 km, 71.0° (Epoch: 28 June)

Date Brightness Start Highest point End Pass type
(mag) Time Alt. Az. Time Alt. Az. Time Alt. Az.
29 Jun 2.2 21:28:33 10° NNW 21:34:13 74° ENE 21:37:25 27° SSE visible
30 Jun 2.2 21:12:54 10° NNW 21:18:34 69° ENE 21:22:33 20° SSE visible
30 Jun 4.7 23:00:19 10° W 23:01:50 11° W 23:03:22 10° WSW visible
01 Jul 2.3 20:57:16 10° NNW 21:02:54 64° ENE 21:07:43 14° SSE visible
01 Jul 4.6 22:44:05 10° WNW 22:46:14 12° W 22:48:22 10° WSW visible
02 Jul 2.4 20:41:38 10° N 20:47:14 59° ENE 20:52:48 10° SSE visible
02 Jul 4.6 22:28:00 10° WNW 22:30:36 13° W 22:33:12 10° SW visible
03 Jul 2.4 20:26:01 10° N 20:31:33 55° ENE 20:37:06 10° SE visible
03 Jul 4.6 22:12:00 10° WNW 22:14:59 15° W 22:17:57 10° SW visible
04 Jul 4.6 21:56:05 10° WNW 21:59:22 16° W 22:02:39 10° SW visible
05 Jul 4.6 21:40:11 10° WNW 21:43:44 17° W 21:47:18 10° SW visible
06 Jul 4.6 21:24:19 10° WNW 21:28:07 19° W 21:31:55 10° SW visible
07 Jul 4.5 21:08:29 10° NW 21:12:30 20° W 21:16:31 10° SW visible
08 Jul 4.5 20:52:39 10° NW 20:56:52 22° W 21:01:05 10° SSW visible
